Retour au catalogue

STARLINK-32607

ActifCommunicationsVLEO
NORAD 61977·PAYLOAD·🇺🇸 United States

Lancé Nov 14, 2024 depuis Cape Canaveral Space Force Station

Loading…

Prochains Passages (prochaines 24 heures)

TLE

FraisSource: CelesTrak SupGP

Époque: Sep 14, 2026, 20:56 UTC

1 61977C 24210U   26257.87270833  .00014601  00000+0  52870-3 0  2572
2 61977  43.0007 191.5905 0001285 266.1610 359.0574 15.27580744    11

Suivez STARLINK-32607 en temps réel avec AllMySat

Download on the App Store